Impacts METAR Board INFO
IDs:

KDCA - Washington/National, VA, US

Updated at: 0202 UTC 22 Jan 2018
Potential Impact None Slight Moderate High
Time21/14Z 21/15Z 21/16Z 21/17Z 21/18Z 21/19Z 21/20Z 21/21Z 21/22Z 21/23Z 22/00Z 22/01Z 22/02Z
VIS10 10 10 10 10 10 10 10 10 10 10 10 10
CIG50 50 50 50 50 -- 80 80 75 80 85 -- --
CoverOVCOVCOVCOVCBKNSCTBKNOVCOVCOVCBKNSCTSCT
FltCatVFRVFRVFRVFRVFRVFRVFRVFRVFRVFRVFRVFRVFR
WX--------------------------
WDir17000001701701701801501701700
WSpd4 0 0 0 3 7 5 7 4 4 6 6 4
WGst-- -- -- -- -- -- -- -- -- -- -- -- --
Raw hourly METARs
KDCA 211352Z 17004KT 10SM OVC050 03/01 A3022 RMK AO2 SLP232 T00330006
KDCA 211452Z 00000KT 10SM OVC050 06/02 A3023 RMK AO2 SLP237 T00610017 53014
KDCA 211552Z 00000KT 10SM OVC050 07/01 A3024 RMK AO2 SLP238 T00720011
KDCA 211652Z 00000KT 10SM OVC050 09/01 A3021 RMK AO2 SLP230 T00940011
KDCA 211752Z VRB03KT 10SM BKN050 13/02 A3017 RMK AO2 SLP216 T01330022 10133 20011 58021
KDCA 211852Z 17007KT 10SM SCT080 15/03 A3015 RMK AO2 SLP209 T01500028
KDCA 211952Z COR 17005KT 10SM BKN080 16/04 A3014 RMK AO2 SLP205 T01560039
KDCA 212052Z 17007KT 10SM OVC080 14/04 A3014 RMK AO2 SLP206 BINOVC T01390039 55010
KDCA 212152Z 18004KT 10SM OVC075 14/04 A3014 RMK AO2 SLP207 T01390044
KDCA 212252Z 15004KT 10SM OVC080 12/04 A3014 RMK AO2 SLP206 T01220044
KDCA 212352Z 17006KT 10SM SCT070 BKN085 13/04 A3015 RMK AO2 SLP209 T01330039 10161 20117 53003
KDCA 220052Z 17006KT 10SM FEW070 SCT085 10/03 A3014 RMK AO2 SLP206 T01000028
KDCA 220152Z VRB04KT 10SM SCT085 11/03 A3015 RMK AO2 SLP211 T01110033